Odiham, United Kingdom

12:21 AM BST on August 29, 2016 (GMT +0100)
Odiham Air Base

Weather History for EGVO - November, 2013

Change the Weather History Date:

Friday, November 1, 2013

  Actual Average (EGUB) Record (EGUB)
Temperature  
Mean Temperature 54 °F -  
Max Temperature 57 °F 54 °F 62 °F (1999)
Min Temperature 50 °F 41 °F 26 °F (1997)
Degree Days  
Heating Degree Days 12    
Growing Degree Days 4 (Base 50)    
Moisture  
Dew Point 51 °F    
Average Humidity 92    
Maximum Humidity 100    
Minimum Humidity 82    
Precipitation  
Precipitation 0.12 in - - ()
Sea Level Pressure  
Sea Level Pressure 29.77 in    
Wind  
Wind Speed 10 mph ()    
Max Wind Speed 16 mph    
Max Gust Speed 25 mph    
Visibility 6.9 miles    
Events Rain    
Averages and records for this station are not official NWS values.
T = Trace of Precipitation, MM = Missing Value Source: Averaged Metar Reports

Daily Weather History Graph

Daily Weather History Graph

Search for Another Location

Airport or City:

Trip Planner

Search our weather history database for the weather conditions in past years. The results will help you decide how hot, cold, wet, or windy it might be!

Date:

Astronomy

Nov. 01, 2013 Rise Set
Actual Time 6:56 AM GMT 4:37 PM GMT
Civil Twilight 6:21 AM GMT 5:12 PM GMT
Nautical Twilight 5:42 AM GMT 5:51 PM GMT
Astronomical Twilight 5:03 AM GMT 6:29 PM GMT
Moon 4:19 AM GMT (11/1) 3:32 PM GMT (11/1)
Length of Visible Light 10h 50m
Length of Day
9h 40m
Waning Crescent, 5% of the Moon is Illuminated
Nov 1
Waning Crescent
Nov 3
New
Nov 10
First Quarter
Nov 17
Full
Nov 25
Last Quarter

Hourly Weather History & Observations

Time (GMT) Temp. Dew Point Humidity Pressure Visibility Wind Dir Wind Speed Gust Speed Precip Events Conditions
12:00 AM 53 °F 50 °F 87% 29.95 in 12 mi South 15.0 mph - -   Partly Cloudy
12:50 AM 53.6 °F 51.8 °F 94% 29.92 in 6.2 mi South 15.0 mph - N/A   Mostly Cloudy
1:50 AM 53.6 °F 51.8 °F 94% 29.89 in 6.2 mi SSW 16.1 mph - N/A   Overcast
2:50 AM 53.6 °F 50.0 °F 88% 29.89 in 6.2 mi SW 15.0 mph - N/A   Mostly Cloudy
3:00 AM 53 °F 50 °F 87% 29.90 in 19 mi SW 15.0 mph - - Rain Rain
3:50 AM 51.8 °F 50.0 °F 94% 29.89 in 6.2 mi SW 15.0 mph - N/A   Mostly Cloudy
4:50 AM 51.8 °F 48.2 °F 88% 29.89 in 6.2 mi WSW 10.4 mph - N/A   Mostly Cloudy
5:50 AM 50.0 °F 48.2 °F 94% 29.89 in 6.2 mi SSW 8.1 mph - N/A Rain Light Rain
6:50 AM 50.0 °F 48.2 °F 94% 29.89 in 6.2 mi SW 6.9 mph - N/A   Mostly Cloudy
7:50 AM 51.8 °F 50.0 °F 94% 29.89 in - SSW 8.1 mph - N/A   Clear
8:50 AM 51.8 °F 50.0 °F 94% 29.89 in 6.2 mi SSE 5.8 mph - N/A Rain Light Rain
9:00 AM 52 °F 50 °F 91% 29.89 in 16 mi SSE 5.8 mph - - Rain Light Rain
9:50 AM 53.6 °F 50.0 °F 88% 29.86 in 6.2 mi SSE 9.2 mph - N/A   Overcast
10:50 AM 53.6 °F 51.8 °F 94% 29.83 in 6.2 mi South 9.2 mph - N/A Rain Light Rain
11:50 AM 55.4 °F 53.6 °F 94% 29.80 in 6.2 mi SSW 12.7 mph - N/A Rain Light Rain
12:00 PM 56 °F 53 °F 86% 29.82 in 3 mi SSW 12.7 mph - - Rain Light Rain
12:33 PM 55.4 °F 53.6 °F 94% 29.80 in 2.5 mi SSW 12.7 mph - N/A Rain Rain
12:50 PM 53.6 °F 53.6 °F 100% 29.80 in 6.2 mi SSW 12.7 mph - N/A   Overcast
1:50 PM 55.4 °F 51.8 °F 88% 29.77 in 6.2 mi South 13.8 mph - N/A   Mostly Cloudy
2:50 PM 55.4 °F 51.8 °F 88% 29.74 in 6.2 mi South 13.8 mph - N/A Rain Light Rain
3:00 PM 55 °F 51 °F 82% 29.75 in 7 mi South 13.8 mph - - Rain Light Rain
3:50 PM 55.4 °F 51.8 °F 88% 29.71 in 6.2 mi South 9.2 mph - N/A Rain Light Rain
4:50 PM 53.6 °F 51.8 °F 94% 29.68 in 6.2 mi SSE 9.2 mph 25.3 mph N/A   Overcast
5:50 PM 53.6 °F 50.0 °F 88% 29.65 in 6.2 mi SSE 9.2 mph - N/A   Overcast
6:00 PM 53 °F 51 °F 89% 29.68 in 9 mi SSE 9.2 mph - -   Partly Cloudy
6:50 PM 51.8 °F 50.0 °F 94% 29.62 in - ESE 6.9 mph - N/A   Clear
7:50 PM 51.8 °F 50.0 °F 94% 29.59 in - ESE 8.1 mph - N/A   Clear
8:50 PM 51.8 °F 50.0 °F 94% 29.56 in 6.2 mi East 5.8 mph - N/A Rain Light Rain
9:00 PM 51 °F 51 °F 99% 29.59 in 6 mi East 5.8 mph - - Rain Light Rain
9:50 PM 51.8 °F 50.0 °F 94% 29.56 in 3.1 mi NE 5.8 mph - N/A Rain Light Rain
10:50 PM 51.8 °F 50.0 °F 94% 29.56 in 5.0 mi North 6.9 mph - N/A   Light Drizzle
11:50 PM 50.0 °F 48.2 °F 94% 29.53 in 6.2 mi NNE 8.1 mph - N/A   Light Drizzle